Location: Tel Aviv
(32.0670°N, 34.7670°E)
Time: 21:24:27
(UTC+03:00)

Transit 2A - Pass Details

Date: 04 June 2024
Orbit: 593 x 959 km, 66.7° (Epoch: 14 June)

Event Time Altitude Azimuth Distance (km) Brightness Sun altitude
Rises 03:58:39 0° 353° (N) 3,497 9.9 -17.6°
Reaches altitude 10° 04:02:11 10° 14° (NNE) 2,611 9.6 -17.0°
Maximum altitude 04:05:53 16° 51° (NE) 2,232 9.5 -16.4°
Drops below altitude 10° 04:09:38 10° 88° (E) 2,677 9.6 -15.8°
Sets 04:13:19 0° 109° (ESE) 3,630 9.9 -15.2°
